Вернуться в каталог

CZ-6A DEB

АктивенPO
NORAD 54936·DEBRIS·🇨🇳 China

Запущен Nov 11, 2022 с Taiyuan Satellite Launch Center

Loading…

Ближайшие Пролёты (ближайшие 24 часа)

TLE

СвежийSource: Space-Track

Эпоха: Sep 14, 2026, 08:01 UTC

1 54936U 22151RZ  26257.33453109  .00007331  00000-0  12184-2 0  9990
2 54936  99.1262  40.0236 0089265  87.9568 273.1853 14.67832698202597

Отслеживайте CZ-6A DEB в реальном времени с AllMySat

Download on the App Store